CW4666 Weather Reports


time (UTC)temp
C
wind
direction
speed
KPH
gust
KPH
rain 1hr
cm
rain 24hr
cm
rain mn
cm
humidity
%
barometer
mb
20180818020618 20 0 0.0 0.0 0.00 0.00 0.00 72 1013.3
20180818020122 20 0 0.0 0.0 0.00 0.00 0.00 72 1013.3
20180818010618 20 0 0.0 0.0 0.00 0.00 0.00 72 1013.5
20180818000121 20 0 0.0 0.0 0.00 0.00 0.00 72 1013.8
20180817230618 20 0 0.0 0.0 0.00 0.00 0.00 72 1013.9
20180817230124 20 0 0.0 0.0 0.00 0.00 0.00 72 1013.8
20180817220618 20 0 0.0 0.0 0.00 0.00 0.00 72 1013.8
20180817220122 20 0 0.0 0.0 0.00 0.00 0.00 72 1013.8
20180817210121 20 0 0.0 0.0 0.00 0.00 0.00 72 1013.6
20180817200617 20 0 0.0 0.0 0.00 0.00 0.00 72 1013.1
20180817190618 21 358 16.1 25.7 0.00 0.00 0.00 73 1013.0
20180817180618 21 6 17.7 32.2 0.00 0.00 0.00 70 1012.8
20180817180125 21 6 14.5 35.4 0.00 0.00 0.00 70 1012.8
20180817170617 22 1 16.1 32.2 0.00 0.00 0.00 68 1013.2
20180817170122 22 5 14.5 35.4 0.00 0.00 0.00 67 1013.2
20180817160618 22 0 16.1 38.6 0.00 0.00 0.00 68 1013.7
20180817150619 22 353 19.3 37.0 0.00 0.00 0.00 68 1013.7
20180817150120 22 354 20.9 35.4 0.00 0.00 0.00 68 1013.8
20180817130617 22 6 16.1 27.4 0.00 0.00 0.00 71 1014.9
20180817130123 22 344 11.3 29.0 0.00 0.00 0.00 71 1014.9
20180817120618 22 11 11.3 24.1 0.00 0.00 0.00 71 1015.1
20180817120121 22 353 12.9 22.5 0.00 0.00 0.00 69 1015.2
20180817110622 22 353 6.4 27.4 0.00 0.00 0.00 74 1015.5
20180817100619 21 302 1.6 16.1 0.00 0.00 0.00 75 1015.8
20180817100128 21 339 4.8 16.1 0.00 0.00 0.00 74 1015.8
20180817090622 20 19 1.6 14.5 0.00 0.00 0.00 81 1015.7
20180817090132 20 15 1.6 12.9 0.00 0.00 0.00 80 1015.7
20180817080618 18 69 0.0 3.2 0.00 0.00 0.00 89 1015.3
20180817060617 18 0 0.0 0.0 0.00 0.00 0.00 88 1014.8
20180817060120 18 0 0.0 0.0 0.00 0.00 0.00 88 1014.7
20180817040620 18 0 0.0 0.0 0.00 0.00 0.00 88 1014.2
20180817040121 18 0 0.0 0.0 0.00 0.00 0.00 88 1014.1
20180817030622 18 0 0.0 0.0 0.00 0.00 0.00 88 1014.6
20180817030137 18 0 0.0 0.0 0.00 0.00 0.00 88 1014.6